Rochester/St. Mary\'s Hospita, MN

12:26 PM CDT on October 20, 2017 (GMT -0500)
Rochester/St. Mary\'s Hospita

Weather History for K9MN - September, 2013

Change the Weather History Date:

Saturday, September 28, 2013

  Actual Average (KRST) Record (KRST)
Temperature  
Mean Temperature 60 °F -  
Max Temperature 68 °F 64 °F 83 °F (1971)
Min Temperature 50 °F 43 °F 22 °F (1942)
Degree Days  
Heating Degree Days 6    
Growing Degree Days 10 (Base 50)    
Moisture  
Dew Point 51 °F    
Average Humidity 71    
Maximum Humidity 94    
Minimum Humidity 53    
Precipitation  
Precipitation 0.07 in - - ()
Sea Level Pressure  
Sea Level Pressure 29.85 in    
Wind  
Wind Speed 13 mph (SSW)    
Max Wind Speed 25 mph    
Max Gust Speed 45 mph    
Visibility 10 miles    
Events      
Averages and records for this station are not official NWS values.
T = Trace of Precipitation, MM = Missing Value Source: NWS Daily Summary

Daily Weather History Graph

Daily Weather History Graph

Search for Another Location

Airport or City:

Trip Planner

Search our weather history database for the weather conditions in past years. The results will help you decide how hot, cold, wet, or windy it might be!

Date:

Astronomy

Sep. 28, 2013 Rise Set
Actual Time 7:04 AM CDT 6:55 PM CDT
Civil Twilight 6:35 AM CDT 7:24 PM CDT
Nautical Twilight 6:02 AM CDT 7:57 PM CDT
Astronomical Twilight 5:27 AM CDT 8:31 PM CDT
Moon 12:41 AM CDT (9/28) 3:24 PM CDT (9/28)
Length of Visible Light 12h 48m
Length of Day
11h 51m
Waning Crescent, 36% of the Moon is Illuminated
Sep 28
Waning Crescent
Oct 4
New
Oct 11
First Quarter
Oct 18
Full
Oct 26
Last Quarter

Hourly Weather History & Observations

Time (CDT) Temp. Dew Point Humidity Pressure Visibility Wind Dir Wind Speed Gust Speed Precip Events Conditions
12:14 AM 68.9 °F 51.1 °F 53% 29.90 in 10.0 mi SSE 13.8 mph 23.0 mph N/A   Scattered Clouds
12:34 AM 68.4 °F 51.1 °F 54% 29.90 in 10.0 mi SE 13.8 mph 23.0 mph N/A   Scattered Clouds
12:53 AM 68.0 °F 51.1 °F 55% 29.89 in 10.0 mi SE 10.4 mph 21.9 mph N/A   Clear
1:14 AM 68.0 °F 51.3 °F 55% 29.89 in 10.0 mi SE 11.5 mph 20.7 mph N/A   Clear
1:34 AM 67.3 °F 51.4 °F 57% 29.88 in 10.0 mi SE 12.7 mph 20.7 mph N/A   Clear
1:53 AM 67.1 °F 51.4 °F 57% 29.87 in 10.0 mi SE 13.8 mph 20.7 mph N/A   Clear
2:14 AM 66.7 °F 51.6 °F 58% 29.87 in 10.0 mi SE 15.0 mph 23.0 mph N/A   Clear
2:34 AM 66.2 °F 51.8 °F 60% 29.87 in 10.0 mi SE 12.7 mph 21.9 mph N/A   Clear
2:53 AM 66.2 °F 51.8 °F 60% 29.86 in 10.0 mi SE 15.0 mph 23.0 mph N/A   Clear
3:14 AM 66.2 °F 51.3 °F 59% 29.84 in 10.0 mi SE 12.7 mph 21.9 mph N/A   Clear
3:34 AM 66.2 °F 51.1 °F 58% 29.84 in 10.0 mi SE 16.1 mph 21.9 mph N/A   Clear
3:53 AM 65.8 °F 51.3 °F 59% 29.84 in 10.0 mi SE 12.7 mph 21.9 mph N/A   Clear
4:14 AM 66.2 °F 51.8 °F 60% 29.84 in 10.0 mi SE 11.5 mph 24.2 mph N/A   Scattered Clouds
4:33 AM 66.4 °F 52.2 °F 60% 29.83 in 10.0 mi SE 17.3 mph 27.6 mph N/A   Mostly Cloudy
4:53 AM 66.4 °F 52.2 °F 60% 29.83 in 10.0 mi SSE 13.8 mph 26.5 mph N/A   Overcast
5:14 AM 65.8 °F 52.3 °F 62% 29.83 in 10.0 mi SE 12.7 mph 25.3 mph N/A   Overcast
5:34 AM 65.5 °F 52.3 °F 62% 29.82 in 10.0 mi SE 15.0 mph 27.6 mph N/A   Mostly Cloudy
5:53 AM 64.9 °F 52.3 °F 64% 29.82 in 10.0 mi SSE 12.7 mph 26.5 mph N/A   Scattered Clouds
6:14 AM 64.6 °F 52.7 °F 65% 29.82 in 10.0 mi SSE 16.1 mph 26.5 mph N/A   Clear
6:33 AM 64.4 °F 52.7 °F 66% 29.81 in 10.0 mi SE 13.8 mph 24.2 mph N/A   Clear
6:53 AM 64.0 °F 53.1 °F 67% 29.81 in 10.0 mi SE 13.8 mph 25.3 mph N/A   Clear
7:14 AM 63.9 °F 53.6 °F 69% 29.80 in 10.0 mi SE 12.7 mph 23.0 mph N/A   Clear
7:33 AM 64.4 °F 53.8 °F 68% 29.80 in 10.0 mi SE 16.1 mph 26.5 mph N/A   Scattered Clouds
7:53 AM 64.6 °F 54.3 °F 69% 29.79 in 10.0 mi SE 16.1 mph 27.6 mph N/A   Scattered Clouds
8:14 AM 64.9 °F 54.5 °F 69% 29.77 in 10.0 mi SE 19.6 mph 28.8 mph N/A   Clear
8:33 AM 65.3 °F 54.7 °F 68% 29.77 in 10.0 mi SE 19.6 mph 31.1 mph N/A   Clear
8:53 AM 66.0 °F 54.9 °F 67% 29.75 in 10.0 mi SE 25.3 mph 32.2 mph N/A   Scattered Clouds
9:14 AM 66.4 °F 55.4 °F 68% 29.76 in 10.0 mi SSE 17.3 mph 28.8 mph N/A   Mostly Cloudy
9:33 AM 66.6 °F 55.4 °F 67% 29.75 in 10.0 mi SE 15.0 mph 27.6 mph N/A   Overcast
9:53 AM 66.7 °F 55.9 °F 68% 29.75 in 10.0 mi SE 16.1 mph 26.5 mph N/A   Mostly Cloudy
10:13 AM 68.2 °F 56.5 °F 66% 29.74 in 10.0 mi SSE 19.6 mph 26.5 mph N/A   Mostly Cloudy
10:33 AM 68.5 °F 56.8 °F 66% 29.74 in 10.0 mi SSE 20.7 mph 31.1 mph N/A   Overcast
10:54 AM 68.0 °F 57.2 °F 68% 29.75 in 10.0 mi SSE 16.1 mph 31.1 mph N/A   Overcast
11:13 AM 67.8 °F 57.7 °F 70% 29.74 in 10.0 mi SSE 21.9 mph 34.5 mph N/A   Overcast
11:33 AM 67.3 °F 58.1 °F 72% 29.75 in 10.0 mi SSE 17.3 mph 29.9 mph N/A   Overcast
11:54 AM 67.1 °F 58.5 °F 74% 29.74 in 10.0 mi SSE 16.1 mph 27.6 mph N/A   Overcast
12:13 PM 67.1 °F 59.0 °F 75% 29.74 in 10.0 mi South 17.3 mph 25.3 mph N/A   Overcast
12:33 PM 66.6 °F 59.7 °F 79% 29.74 in 10.0 mi SSE 17.3 mph 28.8 mph N/A   Overcast
12:54 PM 59.9 °F 52.2 °F 76% 29.77 in 10.0 mi West 23.0 mph 44.9 mph N/A   Overcast
1:13 PM 55.4 °F 52.2 °F 89% 29.79 in 7.0 mi West 19.6 mph 31.1 mph N/A   Overcast
1:33 PM 54.1 °F 51.8 °F 92% 29.80 in 7.0 mi West 11.5 mph 25.3 mph 0.01 in   Overcast
1:54 PM 54.0 °F 52.2 °F 94% 29.80 in 7.0 mi West 12.7 mph 18.4 mph 0.04 in   Overcast
2:13 PM 53.8 °F 51.8 °F 93% 29.82 in 3.0 mi West 15.0 mph 24.2 mph 0.01 in   Overcast
2:33 PM 53.4 °F 51.3 °F 92% 29.83 in 4.0 mi West 13.8 mph 26.5 mph 0.02 in   Overcast
2:54 PM 53.6 °F 51.1 °F 91% 29.85 in 10.0 mi West 10.4 mph 19.6 mph 0.03 in   Overcast
3:13 PM 54.0 °F 51.4 °F 91% 29.86 in 10.0 mi West 11.5 mph 18.4 mph N/A   Overcast
3:34 PM 54.7 °F 51.3 °F 88% 29.85 in 10.0 mi West 10.4 mph 20.7 mph N/A   Overcast
3:53 PM 55.0 °F 51.3 °F 87% 29.86 in 10.0 mi West 8.1 mph - N/A   Overcast
4:13 PM 55.4 °F 51.8 °F 88% 29.87 in 10.0 mi West 8.1 mph 17.3 mph N/A   Overcast
4:34 PM 56.3 °F 51.3 °F 83% 29.87 in 10.0 mi West 9.2 mph - N/A   Overcast
4:54 PM 57.2 °F 50.7 °F 79% 29.87 in 10.0 mi West 9.2 mph - N/A   Mostly Cloudy
5:13 PM 57.2 °F 50.4 °F 78% 29.88 in 10.0 mi West 9.2 mph 16.1 mph N/A   Mostly Cloudy
5:34 PM 58.1 °F 49.1 °F 72% 29.88 in 10.0 mi West 10.4 mph 18.4 mph N/A   Mostly Cloudy
5:53 PM 57.7 °F 48.9 °F 72% 29.90 in 10.0 mi West 10.4 mph - N/A   Mostly Cloudy
6:13 PM 58.1 °F 49.1 °F 72% 29.90 in 10.0 mi West 8.1 mph 16.1 mph N/A   Mostly Cloudy
6:34 PM 57.6 °F 48.9 °F 73% 29.90 in 10.0 mi WSW 5.8 mph - N/A   Scattered Clouds
6:53 PM 56.8 °F 48.7 °F 74% 29.91 in 10.0 mi WSW 8.1 mph - N/A   Clear
7:13 PM 55.9 °F 48.6 °F 76% 29.92 in 10.0 mi West 9.2 mph - N/A   Scattered Clouds
7:34 PM 55.8 °F 46.0 °F 70% 29.93 in 10.0 mi West 6.9 mph - N/A   Clear
7:53 PM 55.4 °F 45.5 °F 69% 29.94 in 10.0 mi West 6.9 mph - N/A   Clear
8:13 PM 54.1 °F 45.5 °F 73% 29.95 in 10.0 mi West 6.9 mph - N/A   Clear
8:34 PM 53.6 °F 45.5 °F 74% 29.95 in 5.0 mi West 8.1 mph - N/A   Clear
8:53 PM 53.6 °F 45.1 °F 73% 29.97 in 10.0 mi West 8.1 mph - N/A   Clear
9:13 PM 53.1 °F 44.6 °F 73% 29.97 in 10.0 mi WSW 10.4 mph - N/A   Clear
9:33 PM 52.9 °F 44.1 °F 72% 29.98 in 10.0 mi WSW 9.2 mph - N/A   Clear
9:53 PM 52.7 °F 43.9 °F 72% 29.98 in 10.0 mi West 8.1 mph - N/A   Clear
10:14 PM 52.5 °F 43.7 °F 72% 29.98 in 10.0 mi West 6.9 mph - N/A   Clear
10:33 PM 52.0 °F 43.3 °F 72% 29.99 in 10.0 mi West 4.6 mph - N/A   Clear
10:53 PM 51.8 °F 43.3 °F 73% 29.99 in 10.0 mi Calm Calm - N/A   Clear
11:14 PM 52.0 °F 42.8 °F 71% 29.99 in 10.0 mi West 3.5 mph - N/A   Clear
11:33 PM 51.8 °F 42.8 °F 71% 29.99 in 10.0 mi Calm Calm - N/A   Clear
11:53 PM 50.7 °F 43.3 °F 76% 29.99 in 10.0 mi Calm Calm - N/A   Clear